owner,sensor,date,latitude,longitude,vertical_datum,direction_of_sea_water_velocity,sea_water_speed,upward_sea_water_velocity,qcFlag 
ADCP,ioos:station:wmo:42890:1,2012-08-01T00:14:00Z,27.6250,-90.4410,15.2,165.0,19.8,-9999.0,'11111222,11111222,99999999' 
ADCP,ioos:station:wmo:42890:1,2012-08-01T00:34:00Z,27.6250,-90.4410,15.2,161.0,22.3,-9999.0,'11111222,11111222,99999999' 
ADCP,ioos:station:wmo:42890:1,2012-08-01T00:54:00Z,27.6250,-90.4410,15.2,194.0,10.0,-9999.0,'11111222,11111222,99999999' 
ADCP,ioos:station:wmo:42890:1,2012-08-01T01:14:00Z,27.6250,-90.4410,15.2,212.0,7.8,-9999.0,'11133222,11111222,99999999' 
ADCP,ioos:station:wmo:42890:1,2012-08-01T01:34:00Z,27.6250,-90.4410,15.2,222.0,10.2,-9999.0,'11111222,11111222,99999999' 
ADCP,ioos:station:wmo:42890:1,2012-08-01T01:54:00Z,27.6250,-90.4410,15.2,219.0,10.1,-9999.0,'11111222,11111222,99999999' 
ADCP,ioos:station:wmo:42890:1,2012-08-01T02:14:00Z,27.6250,-90.4410,15.2,214.0,9.2,-9999.0,'11133222,11111222,99999999' 
ADCP,ioos:station:wmo:42890:1,2012-08-01T02:34:00Z,27.6250,-90.4410,15.2,241.0,10.8,-9999.0,'11111222,11111222,99999999' 
ADCP,ioos:station:wmo:42890:1,2012-08-01T02:54:00Z,27.6250,-90.4410,15.2,231.0,22.9,-9999.0,'11111222,11111222,99999999' 
ADCP,ioos:station:wmo:42890:1,2012-08-01T03:14:00Z,27.6250,-90.4410,15.2,242.0,35.5,-9999.0,'11111222,11111222,99999999' 
ADCP,ioos:station:wmo:42890:1,2012-08-01T03:34:00Z,27.6250,-90.4410,15.2,245.0,32.2,-9999.0,'11111222,11111222,99999999' 
ADCP,ioos:station:wmo:42890:1,2012-08-01T03:54:00Z,27.6250,-90.4410,15.2,239.0,19.7,-9999.0,'11111222,11111222,99999999' 
ADCP,ioos:station:wmo:42890:1,2012-08-01T04:14:00Z,27.6250,-90.4410,15.2,297.0,11.4,-9999.0,'11111222,11111222,99999999' 
ADCP,ioos:station:wmo:42890:1,2012-08-01T04:34:00Z,27.6250,-90.4410,15.2,241.0,8.1,-9999.0,'11133222,11111222,99999999' 
ADCP,ioos:station:wmo:42890:1,2012-08-01T04:54:00Z,27.6250,-90.4410,15.2,177.0,12.9,-9999.0,'11111222,11111222,99999999' 
ADCP,ioos:station:wmo:42890:1,2012-08-01T05:14:00Z,27.6250,-90.4410,15.2,185.0,15.4,-9999.0,'11111222,11111222,99999999' 
ADCP,ioos:station:wmo:42890:1,2012-08-01T05:34:00Z,27.6250,-90.4410,15.2,133.0,25.2,-9999.0,'11111222,11111222,99999999' 
ADCP,ioos:station:wmo:42890:1,2012-08-01T05:54:00Z,27.6250,-90.4410,15.2,223.0,11.7,-9999.0,'11111222,11111222,99999999' 
ADCP,ioos:station:wmo:42890:1,2012-08-01T06:14:00Z,27.6250,-90.4410,15.2,197.0,11.7,-9999.0,'11111222,11111222,99999999' 
ADCP,ioos:station:wmo:42890:1,2012-08-01T06:34:00Z,27.6250,-90.4410,15.2,149.0,22.3,-9999.0,'11111222,11111222,99999999' 
ADCP,ioos:station:wmo:42890:1,2012-08-01T06:54:00Z,27.6250,-90.4410,15.2,137.0,28.2,-9999.0,'11111222,11111222,99999999' 
ADCP,ioos:station:wmo:42890:1,2012-08-01T07:14:00Z,27.6250,-90.4410,15.2,173.0,15.6,-9999.0,'11111222,11111222,99999999' 
ADCP,ioos:station:wmo:42890:1,2012-08-01T07:34:00Z,27.6250,-90.4410,15.2,165.0,15.9,-9999.0,'11111222,11111222,99999999' 
ADCP,ioos:station:wmo:42890:1,2012-08-01T07:54:00Z,27.6250,-90.4410,15.2,178.0,13.5,-9999.0,'11111222,11111222,99999999' 
ADCP,ioos:station:wmo:42890:1,2012-08-01T08:14:00Z,27.6250,-90.4410,15.2,175.0,13.3,-9999.0,'11111222,11111222,99999999' 
ADCP,ioos:station:wmo:42890:1,2012-08-01T08:34:00Z,27.6250,-90.4410,15.2,176.0,14.5,-9999.0,'11111222,11111222,99999999' 
ADCP,ioos:station:wmo:42890:1,2012-08-01T08:54:00Z,27.6250,-90.4410,15.2,180.0,12.0,-9999.0,'11111222,11111222,99999999' 
ADCP,ioos:station:wmo:42890:1,2012-08-01T09:14:00Z,27.6250,-90.4410,15.2,181.0,13.7,-9999.0,'11111222,11111222,99999999' 
ADCP,ioos:station:wmo:42890:1,2012-08-01T09:34:00Z,27.6250,-90.4410,15.2,164.0,13.0,-9999.0,'11111222,11111222,99999999' 
ADCP,ioos:station:wmo:42890:1,2012-08-01T09:54:00Z,27.6250,-90.4410,15.2,148.0,13.7,-9999.0,'11111222,11111222,99999999' 
ADCP,ioos:station:wmo:42890:1,2012-08-01T10:14:00Z,27.6250,-90.4410,15.2,127.0,13.4,-9999.0,'11111222,11111222,99999999' 
ADCP,ioos:station:wmo:42890:1,2012-08-01T10:34:00Z,27.6250,-90.4410,15.2,107.0,9.7,-9999.0,'11133222,11111222,99999999' 
ADCP,ioos:station:wmo:42890:1,2012-08-01T10:54:00Z,27.6250,-90.4410,15.2,99.0,9.7,-9999.0,'11133222,11111222,99999999' 
ADCP,ioos:station:wmo:42890:1,2012-08-01T11:14:00Z,27.6250,-90.4410,15.2,93.0,7.5,-9999.0,'11133222,11111222,99999999' 
ADCP,ioos:station:wmo:42890:1,2012-08-01T11:34:00Z,27.6250,-90.4410,15.2,98.0,8.3,-9999.0,'11133222,11111222,99999999' 
ADCP,ioos:station:wmo:42890:1,2012-08-01T11:54:00Z,27.6250,-90.4410,15.2,97.0,4.8,-9999.0,'11133222,11111222,99999999' 
ADCP,ioos:station:wmo:42890:1,2012-08-01T12:14:00Z,27.6250,-90.4410,15.2,106.0,4.5,-9999.0,'11133222,11111222,99999999' 
ADCP,ioos:station:wmo:42890:1,2012-08-01T12:34:00Z,27.6250,-90.4410,15.2,121.0,7.6,-9999.0,'11133222,11111222,99999999' 
ADCP,ioos:station:wmo:42890:1,2012-08-01T12:54:00Z,27.6250,-90.4410,15.2,137.0,10.0,-9999.0,'11111222,11111222,99999999' 
ADCP,ioos:station:wmo:42890:1,2012-08-01T13:14:00Z,27.6250,-90.4410,15.2,131.0,12.4,-9999.0,'11111222,11111222,99999999' 
ADCP,ioos:station:wmo:42890:1,2012-08-01T13:34:00Z,27.6250,-90.4410,15.2,136.0,11.2,-9999.0,'11111222,11111222,99999999' 
ADCP,ioos:station:wmo:42890:1,2012-08-01T13:54:00Z,27.6250,-90.4410,15.2,139.0,10.0,-9999.0,'11111222,11111222,99999999' 
ADCP,ioos:station:wmo:42890:1,2012-08-01T14:14:00Z,27.6250,-90.4410,15.2,154.0,12.0,-9999.0,'11111222,11111222,99999999' 
ADCP,ioos:station:wmo:42890:1,2012-08-01T14:34:00Z,27.6250,-90.4410,15.2,176.0,10.2,-9999.0,'11111222,11111222,99999999' 
ADCP,ioos:station:wmo:42890:1,2012-08-01T14:54:00Z,27.6250,-90.4410,15.2,184.0,13.2,-9999.0,'11111222,11111222,99999999' 
ADCP,ioos:station:wmo:42890:1,2012-08-01T15:14:00Z,27.6250,-90.4410,15.2,136.0,9.3,-9999.0,'11133222,11111222,99999999' 
ADCP,ioos:station:wmo:42890:1,2012-08-01T15:34:00Z,27.6250,-90.4410,15.2,155.0,11.0,-9999.0,'11111222,11111222,99999999' 
ADCP,ioos:station:wmo:42890:1,2012-08-01T15:54:00Z,27.6250,-90.4410,15.2,209.0,12.0,-9999.0,'11111222,11111222,99999999' 
ADCP,ioos:station:wmo:42890:1,2012-08-01T16:14:00Z,27.6250,-90.4410,15.2,219.0,14.9,-9999.0,'11111222,11111222,99999999' 
ADCP,ioos:station:wmo:42890:1,2012-08-01T16:34:00Z,27.6250,-90.4410,15.2,203.0,14.0,-9999.0,'11111222,11111222,99999999' 
ADCP,ioos:station:wmo:42890:1,2012-08-01T16:54:00Z,27.6250,-90.4410,15.2,205.0,13.1,-9999.0,'11111222,11111222,99999999' 
ADCP,ioos:station:wmo:42890:1,2012-08-01T17:14:00Z,27.6250,-90.4410,15.2,219.0,9.2,-9999.0,'11133222,11111222,99999999' 
ADCP,ioos:station:wmo:42890:1,2012-08-01T17:34:00Z,27.6250,-90.4410,15.2,198.0,7.3,-9999.0,'11133222,11111222,99999999' 
ADCP,ioos:station:wmo:42890:1,2012-08-01T17:54:00Z,27.6250,-90.4410,15.2,204.0,6.7,-9999.0,'11133222,11111222,99999999' 
ADCP,ioos:station:wmo:42890:1,2012-08-01T18:14:00Z,27.6250,-90.4410,15.2,242.0,12.7,-9999.0,'11111222,11111222,99999999' 
ADCP,ioos:station:wmo:42890:1,2012-08-01T18:34:00Z,27.6250,-90.4410,15.2,225.0,13.3,-9999.0,'11111222,11111222,99999999' 
ADCP,ioos:station:wmo:42890:1,2012-08-01T18:54:00Z,27.6250,-90.4410,15.2,242.0,21.7,-9999.0,'11111222,11111222,99999999' 
ADCP,ioos:station:wmo:42890:1,2012-08-01T19:14:00Z,27.6250,-90.4410,15.2,219.0,17.4,-9999.0,'11111222,11111222,99999999' 
ADCP,ioos:station:wmo:42890:1,2012-08-01T19:34:00Z,27.6250,-90.4410,15.2,242.0,13.1,-9999.0,'11111222,11111222,99999999' 
ADCP,ioos:station:wmo:42890:1,2012-08-01T19:54:00Z,27.6250,-90.4410,15.2,227.0,8.0,-9999.0,'11133222,11111222,99999999' 
ADCP,ioos:station:wmo:42890:1,2012-08-01T20:14:00Z,27.6250,-90.4410,15.2,232.0,9.3,-9999.0,'11133222,11111222,99999999' 
ADCP,ioos:station:wmo:42890:1,2012-08-01T20:34:00Z,27.6250,-90.4410,15.2,200.0,10.4,-9999.0,'11111222,11111222,99999999' 
ADCP,ioos:station:wmo:42890:1,2012-08-01T20:54:00Z,27.6250,-90.4410,15.2,206.0,12.4,-9999.0,'11111222,11111222,99999999' 
ADCP,ioos:station:wmo:42890:1,2012-08-01T21:14:00Z,27.6250,-90.4410,15.2,197.0,13.4,-9999.0,'11111222,11111222,99999999' 
ADCP,ioos:station:wmo:42890:1,2012-08-01T21:34:00Z,27.6250,-90.4410,15.2,186.0,13.6,-9999.0,'11111222,11111222,99999999' 
ADCP,ioos:station:wmo:42890:1,2012-08-01T21:54:00Z,27.6250,-90.4410,15.2,144.0,11.2,-9999.0,'11111222,11111222,99999999' 
ADCP,ioos:station:wmo:42890:1,2012-08-01T22:14:00Z,27.6250,-90.4410,15.2,215.0,10.9,-9999.0,'11111222,11111222,99999999' 
ADCP,ioos:station:wmo:42890:1,2012-08-01T22:34:00Z,27.6250,-90.4410,15.2,221.0,6.3,-9999.0,'11133222,11111222,99999999' 
ADCP,ioos:station:wmo:42890:1,2012-08-01T22:54:00Z,27.6250,-90.4410,15.2,243.0,9.3,-9999.0,'11133222,11111222,99999999' 
ADCP,ioos:station:wmo:42890:1,2012-08-01T23:14:00Z,27.6250,-90.4410,15.2,223.0,4.5,-9999.0,'11133222,11111222,99999999' 
ADCP,ioos:station:wmo:42890:1,2012-08-01T23:34:00Z,27.6250,-90.4410,15.2,219.0,5.0,-9999.0,'11133222,11111222,99999999' 
ADCP,ioos:station:wmo:42890:1,2012-08-01T23:54:00Z,27.6250,-90.4410,15.2,227.0,4.1,-9999.0,'11133222,11111222,99999999' 
ADCP,ioos:station:wmo:42890:1,2012-08-02T00:14:00Z,27.6250,-90.4410,15.2,199.0,3.6,-9999.0,'11133222,11111222,99999999' 
ADCP,ioos:station:wmo:42890:1,2012-08-02T00:34:00Z,27.6250,-90.4410,15.2,208.0,4.0,-9999.0,'11133222,11111222,99999999' 
ADCP,ioos:station:wmo:42890:1,2012-08-02T00:54:00Z,27.6250,-90.4410,15.2,232.0,4.8,-9999.0,'11133222,11111222,99999999' 
ADCP,ioos:station:wmo:42890:1,2012-08-02T01:14:00Z,27.6250,-90.4410,15.2,259.0,6.0,-9999.0,'11133222,11111222,99999999' 
ADCP,ioos:station:wmo:42890:1,2012-08-02T01:34:00Z,27.6250,-90.4410,15.2,256.0,6.8,-9999.0,'11133222,11111222,99999999' 
ADCP,ioos:station:wmo:42890:1,2012-08-02T01:54:00Z,27.6250,-90.4410,15.2,263.0,5.8,-9999.0,'11133222,11111222,99999999' 
ADCP,ioos:station:wmo:42890:1,2012-08-02T02:14:00Z,27.6250,-90.4410,15.2,244.0,5.2,-9999.0,'11133222,11111222,99999999' 
ADCP,ioos:station:wmo:42890:1,2012-08-02T02:34:00Z,27.6250,-90.4410,15.2,224.0,7.2,-9999.0,'11133222,11111222,99999999' 
ADCP,ioos:station:wmo:42890:1,2012-08-02T02:54:00Z,27.6250,-90.4410,15.2,219.0,4.1,-9999.0,'11133222,11111222,99999999' 
ADCP,ioos:station:wmo:42890:1,2012-08-02T03:14:00Z,27.6250,-90.4410,15.2,213.0,7.2,-9999.0,'11133222,11111222,99999999' 
ADCP,ioos:station:wmo:42890:1,2012-08-02T03:34:00Z,27.6250,-90.4410,15.2,196.0,6.6,-9999.0,'11133222,11111222,99999999' 
ADCP,ioos:station:wmo:42890:1,2012-08-02T03:54:00Z,27.6250,-90.4410,15.2,158.0,5.7,-9999.0,'11133222,11111222,99999999' 
ADCP,ioos:station:wmo:42890:1,2012-08-02T04:14:00Z,27.6250,-90.4410,15.2,136.0,6.4,-9999.0,'11133222,11111222,99999999' 
ADCP,ioos:station:wmo:42890:1,2012-08-02T04:34:00Z,27.6250,-90.4410,15.2,124.0,8.2,-9999.0,'11133222,11111222,99999999' 
ADCP,ioos:station:wmo:42890:1,2012-08-02T04:54:00Z,27.6250,-90.4410,15.2,142.0,7.4,-9999.0,'11133222,11111222,99999999' 
ADCP,ioos:station:wmo:42890:1,2012-08-02T05:14:00Z,27.6250,-90.4410,15.2,213.0,8.8,-9999.0,'11133222,11111222,99999999' 
ADCP,ioos:station:wmo:42890:1,2012-08-02T05:34:00Z,27.6250,-90.4410,15.2,187.0,10.1,-9999.0,'11111222,11111222,99999999' 
ADCP,ioos:station:wmo:42890:1,2012-08-02T05:54:00Z,27.6250,-90.4410,15.2,230.0,13.2,-9999.0,'11111222,11111222,99999999' 
ADCP,ioos:station:wmo:42890:1,2012-08-02T06:14:00Z,27.6250,-90.4410,15.2,240.0,16.8,-9999.0,'11111222,11111222,99999999' 
ADCP,ioos:station:wmo:42890:1,2012-08-02T06:34:00Z,27.6250,-90.4410,15.2,239.0,14.5,-9999.0,'11111222,11111222,99999999' 
ADCP,ioos:station:wmo:42890:1,2012-08-02T06:54:00Z,27.6250,-90.4410,15.2,214.0,13.1,-9999.0,'11111222,11111222,99999999' 
ADCP,ioos:station:wmo:42890:1,2012-08-02T07:14:00Z,27.6250,-90.4410,15.2,212.0,12.8,-9999.0,'11111222,11111222,99999999' 
ADCP,ioos:station:wmo:42890:1,2012-08-02T07:34:00Z,27.6250,-90.4410,15.2,236.0,13.1,-9999.0,'11111222,11111222,99999999' 
ADCP,ioos:station:wmo:42890:1,2012-08-02T07:54:00Z,27.6250,-90.4410,15.2,205.0,14.0,-9999.0,'11111222,11111222,99999999' 
ADCP,ioos:station:wmo:42890:1,2012-08-02T08:14:00Z,27.6250,-90.4410,15.2,178.0,14.2,-9999.0,'11111222,11111222,99999999' 
ADCP,ioos:station:wmo:42890:1,2012-08-02T08:34:00Z,27.6250,-90.4410,15.2,167.0,14.5,-9999.0,'11111222,11111222,99999999' 
ADCP,ioos:station:wmo:42890:1,2012-08-02T08:54:00Z,27.6250,-90.4410,15.2,193.0,9.3,-9999.0,'11133222,11111222,99999999' 
ADCP,ioos:station:wmo:42890:1,2012-08-02T09:14:00Z,27.6250,-90.4410,15.2,346.0,5.7,-9999.0,'11133222,11111222,99999999' 
ADCP,ioos:station:wmo:42890:1,2012-08-02T09:34:00Z,27.6250,-90.4410,15.2,351.0,10.0,-9999.0,'11111222,11111222,99999999' 
ADCP,ioos:station:wmo:42890:1,2012-08-02T09:54:00Z,27.6250,-90.4410,15.2,21.0,9.9,-9999.0,'11133222,11111222,99999999' 
ADCP,ioos:station:wmo:42890:1,2012-08-02T10:14:00Z,27.6250,-90.4410,15.2,67.0,12.9,-9999.0,'11111222,11111222,99999999' 
ADCP,ioos:station:wmo:42890:1,2012-08-02T10:34:00Z,27.6250,-90.4410,15.2,79.0,19.9,-9999.0,'11111222,11111222,99999999' 
ADCP,ioos:station:wmo:42890:1,2012-08-02T10:54:00Z,27.6250,-90.4410,15.2,80.0,18.7,-9999.0,'11111222,11111222,99999999' 
ADCP,ioos:station:wmo:42890:1,2012-08-02T11:14:00Z,27.6250,-90.4410,15.2,88.0,9.1,-9999.0,'11133222,11111222,99999999' 
ADCP,ioos:station:wmo:42890:1,2012-08-02T11:34:00Z,27.6250,-90.4410,15.2,85.0,13.9,-9999.0,'11111222,11111222,99999999' 
ADCP,ioos:station:wmo:42890:1,2012-08-02T11:54:00Z,27.6250,-90.4410,15.2,85.0,16.1,-9999.0,'11111222,11111222,99999999' 
ADCP,ioos:station:wmo:42890:1,2012-08-02T12:14:00Z,27.6250,-90.4410,15.2,92.0,21.1,-9999.0,'11111222,11111222,99999999' 
ADCP,ioos:station:wmo:42890:1,2012-08-02T12:34:00Z,27.6250,-90.4410,15.2,92.0,11.0,-9999.0,'11111222,11111222,99999999' 
ADCP,ioos:station:wmo:42890:1,2012-08-02T12:54:00Z,27.6250,-90.4410,15.2,107.0,14.4,-9999.0,'11111222,11111222,99999999' 
ADCP,ioos:station:wmo:42890:1,2012-08-02T13:14:00Z,27.6250,-90.4410,15.2,118.0,13.2,-9999.0,'11111222,11111222,99999999' 
ADCP,ioos:station:wmo:42890:1,2012-08-02T13:34:00Z,27.6250,-90.4410,15.2,133.0,11.4,-9999.0,'11111222,11111222,99999999' 
ADCP,ioos:station:wmo:42890:1,2012-08-02T13:54:00Z,27.6250,-90.4410,15.2,161.0,10.8,-9999.0,'11111222,11111222,99999999' 
ADCP,ioos:station:wmo:42890:1,2012-08-02T14:14:00Z,27.6250,-90.4410,15.2,170.0,12.1,-9999.0,'11111222,11111222,99999999' 
ADCP,ioos:station:wmo:42890:1,2012-08-02T14:34:00Z,27.6250,-90.4410,15.2,139.0,14.0,-9999.0,'11111222,11111222,99999999' 
ADCP,ioos:station:wmo:42890:1,2012-08-02T14:54:00Z,27.6250,-90.4410,15.2,187.0,10.1,-9999.0,'11111222,11111222,99999999' 
ADCP,ioos:station:wmo:42890:1,2012-08-02T15:14:00Z,27.6250,-90.4410,15.2,188.0,10.7,-9999.0,'11111222,11111222,99999999' 
ADCP,ioos:station:wmo:42890:1,2012-08-02T15:34:00Z,27.6250,-90.4410,15.2,176.0,14.2,-9999.0,'11111222,11111222,99999999' 
ADCP,ioos:station:wmo:42890:1,2012-08-02T15:54:00Z,27.6250,-90.4410,15.2,243.0,12.5,-9999.0,'11111222,11111222,99999999' 
ADCP,ioos:station:wmo:42890:1,2012-08-02T16:14:00Z,27.6250,-90.4410,15.2,256.0,9.3,-9999.0,'11133222,11111222,99999999' 
ADCP,ioos:station:wmo:42890:1,2012-08-02T16:34:00Z,27.6250,-90.4410,15.2,229.0,11.5,-9999.0,'11111222,11111222,99999999' 
ADCP,ioos:station:wmo:42890:1,2012-08-02T16:54:00Z,27.6250,-90.4410,15.2,180.0,13.5,-9999.0,'11111222,11111222,99999999' 
ADCP,ioos:station:wmo:42890:1,2012-08-02T17:14:00Z,27.6250,-90.4410,15.2,241.0,5.1,-9999.0,'11133222,11111222,99999999' 
ADCP,ioos:station:wmo:42890:1,2012-08-02T17:34:00Z,27.6250,-90.4410,15.2,127.0,7.0,-9999.0,'11133222,11111222,99999999' 
ADCP,ioos:station:wmo:42890:1,2012-08-02T17:54:00Z,27.6250,-90.4410,15.2,155.0,10.4,-9999.0,'11111222,11111222,99999999' 
ADCP,ioos:station:wmo:42890:1,2012-08-02T18:14:00Z,27.6250,-90.4410,15.2,239.0,2.6,-9999.0,'11133222,11111222,99999999' 
ADCP,ioos:station:wmo:42890:1,2012-08-02T18:34:00Z,27.6250,-90.4410,15.2,147.0,2.4,-9999.0,'11133222,11111222,99999999' 
ADCP,ioos:station:wmo:42890:1,2012-08-02T18:54:00Z,27.6250,-90.4410,15.2,148.0,9.3,-9999.0,'11133222,11111222,99999999' 
ADCP,ioos:station:wmo:42890:1,2012-08-02T19:14:00Z,27.6250,-90.4410,15.2,153.0,13.4,-9999.0,'11111222,11111222,99999999' 
ADCP,ioos:station:wmo:42890:1,2012-08-02T19:34:00Z,27.6250,-90.4410,15.2,182.0,11.2,-9999.0,'11111222,11111222,99999999' 
ADCP,ioos:station:wmo:42890:1,2012-08-02T19:54:00Z,27.6250,-90.4410,15.2,211.0,7.0,-9999.0,'11133222,11111222,99999999' 
ADCP,ioos:station:wmo:42890:1,2012-08-02T20:14:00Z,27.6250,-90.4410,15.2,158.0,8.1,-9999.0,'11133222,11111222,99999999' 
ADCP,ioos:station:wmo:42890:1,2012-08-02T20:34:00Z,27.6250,-90.4410,15.2,159.0,8.9,-9999.0,'11133222,11111222,99999999' 
ADCP,ioos:station:wmo:42890:1,2012-08-02T20:54:00Z,27.6250,-90.4410,15.2,149.0,9.2,-9999.0,'11133222,11111222,99999999' 
ADCP,ioos:station:wmo:42890:1,2012-08-02T21:14:00Z,27.6250,-90.4410,15.2,151.0,11.0,-9999.0,'11111222,11111222,99999999' 
ADCP,ioos:station:wmo:42890:1,2012-08-02T21:34:00Z,27.6250,-90.4410,15.2,179.0,9.7,-9999.0,'11133222,11111222,99999999' 
ADCP,ioos:station:wmo:42890:1,2012-08-02T21:54:00Z,27.6250,-90.4410,15.2,198.0,10.8,-9999.0,'11111222,11111222,99999999' 
ADCP,ioos:station:wmo:42890:1,2012-08-02T22:14:00Z,27.6250,-90.4410,15.2,199.0,9.8,-9999.0,'11133222,11111222,99999999' 
ADCP,ioos:station:wmo:42890:1,2012-08-02T22:34:00Z,27.6250,-90.4410,15.2,162.0,8.3,-9999.0,'11133222,11111222,99999999' 
ADCP,ioos:station:wmo:42890:1,2012-08-02T22:54:00Z,27.6250,-90.4410,15.2,160.0,8.0,-9999.0,'11133222,11111222,99999999' 
ADCP,ioos:station:wmo:42890:1,2012-08-02T23:14:00Z,27.6250,-90.4410,15.2,255.0,14.8,-9999.0,'11111222,11111222,99999999' 
ADCP,ioos:station:wmo:42890:1,2012-08-02T23:34:00Z,27.6250,-90.4410,15.2,247.0,10.9,-9999.0,'11111222,11111222,99999999' 
ADCP,ioos:station:wmo:42890:1,2012-08-02T23:54:00Z,27.6250,-90.4410,15.2,251.0,6.7,-9999.0,'11133222,11111222,99999999' 
ADCP,ioos:station:wmo:42890:1,2012-08-03T00:14:00Z,27.6250,-90.4410,15.2,137.0,8.4,-9999.0,'11133222,11111222,99999999' 
ADCP,ioos:station:wmo:42890:1,2012-08-03T00:34:00Z,27.6250,-90.4410,15.2,165.0,6.8,-9999.0,'11133222,11111222,99999999' 
ADCP,ioos:station:wmo:42890:1,2012-08-03T00:54:00Z,27.6250,-90.4410,15.2,173.0,8.4,-9999.0,'11133222,11111222,99999999' 
ADCP,ioos:station:wmo:42890:1,2012-08-03T01:14:00Z,27.6250,-90.4410,15.2,170.0,11.3,-9999.0,'11111222,11111222,99999999' 
ADCP,ioos:station:wmo:42890:1,2012-08-03T01:34:00Z,27.6250,-90.4410,15.2,199.0,9.8,-9999.0,'11133222,11111222,99999999' 
ADCP,ioos:station:wmo:42890:1,2012-08-03T01:54:00Z,27.6250,-90.4410,15.2,199.0,10.6,-9999.0,'11111222,11111222,99999999' 
ADCP,ioos:station:wmo:42890:1,2012-08-03T02:14:00Z,27.6250,-90.4410,15.2,85.0,6.5,-9999.0,'11133222,11111222,99999999' 
ADCP,ioos:station:wmo:42890:1,2012-08-03T02:34:00Z,27.6250,-90.4410,15.2,87.0,6.7,-9999.0,'11133222,11111222,99999999' 
ADCP,ioos:station:wmo:42890:1,2012-08-03T02:54:00Z,27.6250,-90.4410,15.2,254.0,18.0,-9999.0,'11111222,11111222,99999999' 
ADCP,ioos:station:wmo:42890:1,2012-08-03T03:14:00Z,27.6250,-90.4410,15.2,254.0,19.8,-9999.0,'11111222,11111222,99999999' 
ADCP,ioos:station:wmo:42890:1,2012-08-03T03:34:00Z,27.6250,-90.4410,15.2,255.0,21.6,-9999.0,'11111222,11111222,99999999' 
ADCP,ioos:station:wmo:42890:1,2012-08-03T03:54:00Z,27.6250,-90.4410,15.2,257.0,18.5,-9999.0,'11111222,11111222,99999999' 
ADCP,ioos:station:wmo:42890:1,2012-08-03T04:14:00Z,27.6250,-90.4410,15.2,256.0,20.2,-9999.0,'11111222,11111222,99999999' 
ADCP,ioos:station:wmo:42890:1,2012-08-03T04:34:00Z,27.6250,-90.4410,15.2,251.0,19.4,-9999.0,'11111222,11111222,99999999' 
ADCP,ioos:station:wmo:42890:1,2012-08-03T04:54:00Z,27.6250,-90.4410,15.2,229.0,17.2,-9999.0,'11111222,11111222,99999999' 
ADCP,ioos:station:wmo:42890:1,2012-08-03T05:14:00Z,27.6250,-90.4410,15.2,231.0,8.8,-9999.0,'11133222,11111222,99999999' 
ADCP,ioos:station:wmo:42890:1,2012-08-03T05:34:00Z,27.6250,-90.4410,15.2,209.0,10.1,-9999.0,'11111222,11111222,99999999' 
ADCP,ioos:station:wmo:42890:1,2012-08-03T05:54:00Z,27.6250,-90.4410,15.2,223.0,13.1,-9999.0,'11111222,11111222,99999999' 
ADCP,ioos:station:wmo:42890:1,2012-08-03T06:14:00Z,27.6250,-90.4410,15.2,234.0,10.1,-9999.0,'11111222,11111222,99999999' 
ADCP,ioos:station:wmo:42890:1,2012-08-03T06:34:00Z,27.6250,-90.4410,15.2,248.0,27.3,-9999.0,'11111222,11111222,99999999' 
ADCP,ioos:station:wmo:42890:1,2012-08-03T06:54:00Z,27.6250,-90.4410,15.2,244.0,15.8,-9999.0,'11111222,11111222,99999999' 
ADCP,ioos:station:wmo:42890:1,2012-08-03T07:14:00Z,27.6250,-90.4410,15.2,198.0,14.3,-9999.0,'11111222,11111222,99999999' 
ADCP,ioos:station:wmo:42890:1,2012-08-03T07:34:00Z,27.6250,-90.4410,15.2,223.0,12.9,-9999.0,'11111222,11111222,99999999' 
ADCP,ioos:station:wmo:42890:1,2012-08-03T07:54:00Z,27.6250,-90.4410,15.2,210.0,11.2,-9999.0,'11111222,11111222,99999999' 
ADCP,ioos:station:wmo:42890:1,2012-08-03T08:14:00Z,27.6250,-90.4410,15.2,242.0,12.9,-9999.0,'11111222,11111222,99999999' 
ADCP,ioos:station:wmo:42890:1,2012-08-03T08:34:00Z,27.6250,-90.4410,15.2,286.0,10.8,-9999.0,'11111222,11111222,99999999' 
ADCP,ioos:station:wmo:42890:1,2012-08-03T08:54:00Z,27.6250,-90.4410,15.2,316.0,11.2,-9999.0,'11111222,11111222,99999999' 
ADCP,ioos:station:wmo:42890:1,2012-08-03T09:14:00Z,27.6250,-90.4410,15.2,285.0,13.7,-9999.0,'11111222,11111222,99999999' 
ADCP,ioos:station:wmo:42890:1,2012-08-03T09:34:00Z,27.6250,-90.4410,15.2,274.0,11.1,-9999.0,'11111222,11111222,99999999' 
ADCP,ioos:station:wmo:42890:1,2012-08-03T09:54:00Z,27.6250,-90.4410,15.2,247.0,9.9,-9999.0,'11133222,11111222,99999999' 
ADCP,ioos:station:wmo:42890:1,2012-08-03T10:14:00Z,27.6250,-90.4410,15.2,204.0,9.2,-9999.0,'11133222,11111222,99999999' 
ADCP,ioos:station:wmo:42890:1,2012-08-03T10:34:00Z,27.6250,-90.4410,15.2,191.0,9.3,-9999.0,'11133222,11111222,99999999' 
ADCP,ioos:station:wmo:42890:1,2012-08-03T10:54:00Z,27.6250,-90.4410,15.2,158.0,8.9,-9999.0,'11133222,11111222,99999999' 
ADCP,ioos:station:wmo:42890:1,2012-08-03T11:14:00Z,27.6250,-90.4410,15.2,147.0,8.2,-9999.0,'11133222,11111222,99999999' 
ADCP,ioos:station:wmo:42890:1,2012-08-03T11:34:00Z,27.6250,-90.4410,15.2,67.0,29.1,-9999.0,'11111222,11111222,99999999' 
ADCP,ioos:station:wmo:42890:1,2012-08-03T11:54:00Z,27.6250,-90.4410,15.2,60.0,27.6,-9999.0,'11111222,11111222,99999999' 
ADCP,ioos:station:wmo:42890:1,2012-08-03T12:14:00Z,27.6250,-90.4410,15.2,51.0,5.6,-9999.0,'11133222,11111222,99999999' 
ADCP,ioos:station:wmo:42890:1,2012-08-03T12:34:00Z,27.6250,-90.4410,15.2,86.0,9.2,-9999.0,'11133222,11111222,99999999' 
ADCP,ioos:station:wmo:42890:1,2012-08-03T12:54:00Z,27.6250,-90.4410,15.2,73.0,9.3,-9999.0,'11133222,11111222,99999999' 
ADCP,ioos:station:wmo:42890:1,2012-08-03T13:14:00Z,27.6250,-90.4410,15.2,83.0,9.3,-9999.0,'11133222,11111222,99999999' 
ADCP,ioos:station:wmo:42890:1,2012-08-03T13:34:00Z,27.6250,-90.4410,15.2,83.0,10.2,-9999.0,'11111222,11111222,99999999' 
ADCP,ioos:station:wmo:42890:1,2012-08-03T13:54:00Z,27.6250,-90.4410,15.2,89.0,11.4,-9999.0,'11111222,11111222,99999999' 
ADCP,ioos:station:wmo:42890:1,2012-08-03T14:14:00Z,27.6250,-90.4410,15.2,99.0,9.7,-9999.0,'11133222,11111222,99999999' 
ADCP,ioos:station:wmo:42890:1,2012-08-03T14:34:00Z,27.6250,-90.4410,15.2,102.0,9.9,-9999.0,'11133222,11111222,99999999' 
ADCP,ioos:station:wmo:42890:1,2012-08-03T14:54:00Z,27.6250,-90.4410,15.2,107.0,9.6,-9999.0,'11133222,11111222,99999999' 
ADCP,ioos:station:wmo:42890:1,2012-08-03T15:14:00Z,27.6250,-90.4410,15.2,121.0,6.8,-9999.0,'11133222,11111222,99999999' 
ADCP,ioos:station:wmo:42890:1,2012-08-03T15:34:00Z,27.6250,-90.4410,15.2,252.0,7.1,-9999.0,'11133222,11111222,99999999' 
ADCP,ioos:station:wmo:42890:1,2012-08-03T15:54:00Z,27.6250,-90.4410,15.2,121.0,5.7,-9999.0,'11133222,11111222,99999999' 
ADCP,ioos:station:wmo:42890:1,2012-08-03T16:14:00Z,27.6250,-90.4410,15.2,333.0,5.4,-9999.0,'11133222,11111222,99999999' 
ADCP,ioos:station:wmo:42890:1,2012-08-03T16:34:00Z,27.6250,-90.4410,15.2,57.0,6.9,-9999.0,'11133222,11111222,99999999' 
ADCP,ioos:station:wmo:42890:1,2012-08-03T16:54:00Z,27.6250,-90.4410,15.2,73.0,8.4,-9999.0,'11133222,11111222,99999999' 
ADCP,ioos:station:wmo:42890:1,2012-08-03T17:14:00Z,27.6250,-90.4410,15.2,55.0,9.1,-9999.0,'11133222,11111222,99999999' 